Location: Unspecified
(0.0000°N, 0.0000°E)
Time: 01:24:22
(UTC+00:00)

Vanguard 3 - Pass Details

Date: 24 November 2019
Orbit: 508 x 3263 km, 33.3° (Epoch: 11 December)

Event Time Altitude Azimuth Distance (km) Brightness Sun altitude
Rises 19:37:12 0° 311° (NW) 6,490 12.1 -25.7°
Reaches altitude 10° 19:42:15 10° 315° (NW) 5,085 11.4 -26.9°
Maximum altitude 19:55:20 59° 31° (NNE) 1,780 8.5 -29.9°
Enters shadow 19:55:54 58° 45° (NE) 1,748 8.4 -30.0°
Drops below altitude 10° 20:02:34 10° 109° (ESE) 2,921 - -31.5°
Sets 20:04:43 0° 113° (ESE) 3,623 - -32.0°
